sat.trackr.live / text

‹ back to catalog

STARLINK-35120

NORAD 65659 · 2025-211H

PAYLOAD ACTIVE UNKNOWN

§ Identity

Operator
Country
US
Launch date
2025-09-19
Launch site
AFWTR
Launch vehicle
Mass (kg)
RCS (m²)

Purposes: comms

External: N2YO · Heavens-Above · Gunter

§ Orbital elements

Epoch: 2026-09-19T08:15:08.139744Z

Period
93.91 min
Inclination
97.2833°
Eccentricity
0.0001049
Mean motion
15.33459881 rev/d
Perigee alt
464.8 km
Apogee alt
466.2 km
Semi-major
6,843.6 km
B*
3.8027e-4
RAAN
302.5534°
Arg perigee
95.1010°
Mean anomaly
265.0352°
Rev number
5,634

§ Raw data

STARLINK-351201 65659U 25211H   26262.34384421  .00012227  00000+0  38027-3 0  99952 65659  97.2833 302.5534 0001049  95.1010 265.0352 15.33459881 56345

JSON: /api/v1/satellites/65659 · /tle

For live sub-satellite position, see the globe view (requires WebGL).

§ Visibility from observer

Set your observer location to see the next 7 days of passes ≥ 10°. The values pass through the URL so the page stays shareable.

No JS? Fill the form by hand. The geolocation button needs JavaScript.